TimeCDT,TemperatureF,Dew PointF,Humidity,Sea Level PressureIn,VisibilityMPH,Wind Direction,Wind SpeedMPH,Gust SpeedMPH,PrecipitationIn,Events,Conditions,WindDirDegrees,DateUTC
12:53 AM,35.1,34.0,96,29.82,10.0,WNW,17.3,-,N/A,,Overcast,290,2013-04-11 05:53:00
1:53 AM,34.0,32.0,92,29.81,9.0,West,13.8,-,N/A,,Overcast,280,2013-04-11 06:53:00
2:12 AM,33.8,30.2,87,29.78,10.0,WNW,13.8,20.7,N/A,,Overcast,290,2013-04-11 07:12:00
2:53 AM,34.0,30.0,85,29.80,10.0,West,15.0,-,N/A,,Overcast,280,2013-04-11 07:53:00
3:53 AM,33.1,28.9,85,29.75,10.0,NW,12.7,19.6,N/A,,Overcast,310,2013-04-11 08:53:00
4:01 AM,33.8,28.4,81,29.72,10.0,WNW,12.7,-,N/A,,Overcast,300,2013-04-11 09:01:00
4:53 AM,33.1,28.0,82,29.75,10.0,WNW,12.7,-,N/A,,Overcast,290,2013-04-11 09:53:00
5:53 AM,32.0,28.0,85,29.74,10.0,West,12.7,-,N/A,,Overcast,270,2013-04-11 10:53:00
6:53 AM,32.0,28.0,85,29.74,10.0,West,10.4,-,N/A,,Overcast,270,2013-04-11 11:53:00
7:53 AM,32.0,28.0,85,29.75,10.0,West,11.5,-,N/A,,Overcast,260,2013-04-11 12:53:00
8:53 AM,33.1,27.0,78,29.75,10.0,West,10.4,-,N/A,,Overcast,260,2013-04-11 13:53:00
9:53 AM,32.0,26.6,80,29.73,10.0,West,13.8,23.0,N/A,,Overcast,270,2013-04-11 14:53:00
10:53 AM,32.0,26.1,79,29.75,10.0,West,16.1,-,N/A,,Overcast,280,2013-04-11 15:53:00
11:53 AM,34.0,27.0,75,29.74,10.0,West,17.3,24.2,N/A,,Overcast,260,2013-04-11 16:53:00
12:53 PM,36.0,27.0,70,29.74,10.0,West,16.1,21.9,N/A,,Overcast,260,2013-04-11 17:53:00
1:53 PM,36.0,28.0,73,29.73,10.0,West,17.3,-,N/A,,Overcast,280,2013-04-11 18:53:00
2:10 PM,37.4,26.6,65,29.70,10.0,West,16.1,23.0,N/A,,Overcast,280,2013-04-11 19:10:00
2:17 PM,35.6,26.6,70,29.70,10.0,West,15.0,21.9,N/A,,Overcast,270,2013-04-11 19:17:00
2:53 PM,37.0,27.0,67,29.73,10.0,West,16.1,23.0,N/A,,Overcast,260,2013-04-11 19:53:00
3:53 PM,37.9,28.0,68,29.73,10.0,West,12.7,24.2,N/A,,Overcast,270,2013-04-11 20:53:00
4:05 PM,37.4,28.4,70,29.70,10.0,West,17.3,-,N/A,,Overcast,270,2013-04-11 21:05:00
4:32 PM,37.4,28.4,70,29.70,10.0,WNW,17.3,-,N/A,,Overcast,290,2013-04-11 21:32:00
4:43 PM,37.4,28.4,70,29.69,10.0,WNW,20.7,-,N/A,,Overcast,290,2013-04-11 21:43:00
4:53 PM,39.0,28.9,67,29.71,10.0,West,18.4,25.3,N/A,,Overcast,280,2013-04-11 21:53:00
5:53 PM,37.9,28.9,70,29.72,10.0,West,17.3,-,N/A,,Overcast,280,2013-04-11 22:53:00
6:53 PM,37.0,28.0,70,29.73,10.0,West,15.0,24.2,0.00,,Overcast,280,2013-04-11 23:53:00
7:53 PM,36.0,28.9,76,29.74,10.0,WNW,10.4,-,0.00,,Overcast,290,2013-04-12 00:53:00
8:27 PM,37.4,28.4,70,29.72,10.0,West,9.2,-,N/A,,Overcast,280,2013-04-12 01:27:00
8:53 PM,36.0,28.9,76,29.75,10.0,WNW,15.0,-,N/A,,Overcast,290,2013-04-12 01:53:00
9:53 PM,36.0,28.0,73,29.77,10.0,West,13.8,-,N/A,,Overcast,280,2013-04-12 02:53:00
10:53 PM,36.0,28.0,73,29.77,10.0,West,15.0,-,N/A,,Overcast,280,2013-04-12 03:53:00
11:27 PM,35.6,28.4,75,29.75,10.0,West,12.7,-,N/A,,Overcast,270,2013-04-12 04:27:00
11:53 PM,35.1,28.9,78,29.77,10.0,West,13.8,-,N/A,,Overcast,270,2013-04-12 04:53:00